Weather History for Hailey, ID

Change the Weather History Date:

Saturday, December 7, 2013

  Actual Average Record
Temperature  
Mean Temperature 12 °F -  
Max Temperature 21 °F 34 °F 46 °F (2014)
Min Temperature 1 °F 16 °F -5 °F (1996)
Degree Days  
Heating Degree Days 53    
Moisture  
Dew Point 8 °F    
Average Humidity 84    
Maximum Humidity 92    
Minimum Humidity 68    
Precipitation  
Precipitation 0.00 in - - ()
Sea Level Pressure  
Sea Level Pressure 29.75 in    
Wind  
Wind Speed 7 mph (NW)    
Max Wind Speed 12 mph    
Max Gust Speed -    
Visibility 4 miles    
Events Snow    
Averages and records for this station are not official NWS values.
T = Trace of Precipitation, MM = Missing Value Source: NWS Daily Summary

Daily Weather History Graph

Daily Weather History Graph

Search for Another Location

Airport:

Trip Planner

Search our weather history database for the weather conditions in past years. The results will help you decide how hot, cold, wet, or windy it might be!

Date:

Astronomy

Dec. 07, 2013 Rise Set
Actual Time 7:56 AM MST 5:00 PM MST
Civil Twilight 7:24 AM MST 5:33 PM MST
Nautical Twilight 6:48 AM MST 6:09 PM MST
Astronomical Twilight 6:13 AM MST 6:43 PM MST
Moon 11:38 AM MST (12/7) 10:54 PM MST (12/7)
Length of Visible Light 10h 08m
Length of Day
9h 03m
Waxing Crescent, 30% of the Moon is Illuminated
Dec 7
Waxing Crescent
Dec 9
First Quarter
Dec 17
Full
Dec 25
Last Quarter
Jan 1
New

Hourly Weather History & Observations

Time (MST) Temp. Windchill Dew Point Humidity Pressure Visibility Wind Dir Wind Speed Gust Speed Precip Events Conditions
12:15 AM 12.2 °F 0.7 °F 8.6 °F 85% 29.84 in 1.5 mi NW 8.1 mph - N/A Snow Light Snow
12:35 AM 12.2 °F 2.9 °F 8.6 °F 85% 29.83 in 1.2 mi NW 5.8 mph - N/A Snow Light Snow
12:55 AM 12.2 °F 4.3 °F 8.6 °F 85% 29.82 in 1.0 mi NW 4.6 mph - N/A Snow Light Snow
1:15 AM 12.2 °F 0.7 °F 8.6 °F 85% 29.80 in 1.5 mi NW 8.1 mph - N/A Snow Light Snow
1:35 AM 12.2 °F 1.7 °F 8.6 °F 85% 29.79 in 2.0 mi NW 6.9 mph - N/A Snow Light Snow
1:55 AM 12.2 °F 0.7 °F 8.6 °F 85% 29.77 in 1.2 mi NW 8.1 mph - N/A Snow Light Snow
2:15 AM 12.2 °F 0.7 °F 8.6 °F 85% 29.77 in 1.5 mi NW 8.1 mph - N/A Snow Light Snow
2:35 AM 12.2 °F 1.7 °F 8.6 °F 85% 29.77 in 1.5 mi NW 6.9 mph - N/A Snow Light Snow
2:55 AM 12.2 °F 2.9 °F 8.6 °F 85% 29.76 in 1.8 mi NW 5.8 mph - N/A Snow Light Snow
3:15 AM 12.2 °F 0.7 °F 8.6 °F 85% 29.75 in 1.2 mi NW 8.1 mph - N/A Snow Light Snow
3:35 AM 12.2 °F -1.0 °F 8.6 °F 85% 29.73 in 1.5 mi NW 10.4 mph - N/A Snow Light Snow
3:55 AM 12.2 °F -0.2 °F 8.6 °F 85% 29.72 in 1.8 mi NW 9.2 mph - N/A Snow Light Snow
4:15 AM 12.2 °F -1.0 °F 8.6 °F 85% 29.71 in 2.5 mi NW 10.4 mph - N/A   Overcast
4:35 AM 12.2 °F 2.9 °F 8.6 °F 85% 29.71 in 1.8 mi NW 5.8 mph - N/A Snow Light Snow
4:55 AM 12.2 °F 2.9 °F 8.6 °F 85% 29.70 in 1.2 mi NNW 5.8 mph - N/A Snow Light Snow
5:15 AM 12.2 °F 1.7 °F 10.4 °F 92% 29.69 in 1.8 mi NW 6.9 mph - N/A Snow Light Snow
5:35 AM 12.2 °F 1.7 °F 10.4 °F 92% 29.69 in 1.5 mi NNW 6.9 mph - N/A Snow Light Snow
5:55 AM 12.2 °F 0.7 °F 10.4 °F 92% 29.68 in 1.2 mi NNW 8.1 mph - N/A Snow Light Snow
7:47 AM 12.2 °F -1.8 °F 8.6 °F 85% 29.66 in 5.0 mi WNW 11.5 mph - N/A Snow Light Snow
8:50 AM 12.2 °F -0.2 °F 8.6 °F 85% 29.66 in 4.0 mi NW 9.2 mph - N/A Snow Light Snow
9:17 AM 12.2 °F -1.8 °F 8.6 °F 85% 29.66 in 3.0 mi WNW 11.5 mph - N/A Snow Snow
9:47 AM 14.0 °F 0.5 °F 8.6 °F 79% 29.67 in 4.0 mi WNW 11.5 mph - N/A   Haze
10:50 AM 15.8 °F 5.1 °F 10.4 °F 79% 29.67 in 5.0 mi WNW 8.1 mph - N/A   Haze
11:55 AM 17.6 °F 7.3 °F 10.4 °F 73% 29.96 in 4.0 mi WNW 8.1 mph - N/A Snow Light Snow
12:47 PM 19.4 °F 12.8 °F 10.4 °F 68% 29.64 in 5.0 mi WNW 4.6 mph - N/A Snow Light Snow
1:47 PM 19.4 °F - 10.4 °F 68% 29.63 in 5.0 mi Calm Calm - N/A Snow Light Snow
2:50 PM 21.2 °F 9.5 °F 12.2 °F 68% 29.65 in 7.0 mi SSW 11.5 mph - N/A   Mostly Cloudy
3:30 PM 19.4 °F 7.9 °F 12.2 °F 74% 29.67 in 5.0 mi South 10.4 mph - N/A Snow Light Snow
3:50 PM 17.6 °F 5.7 °F 12.2 °F 79% 29.68 in 3.0 mi SSE 10.4 mph - N/A Snow Light Snow
4:50 PM 15.8 °F 2.7 °F 12.2 °F 86% 29.70 in 3.0 mi ESE 11.5 mph - N/A Snow Light Snow
5:55 PM 15.8 °F 2.7 °F 12.2 °F 86% 29.73 in 1.5 mi ESE 11.5 mph - N/A Snow Light Snow
6:47 PM 12.2 °F -0.2 °F 10.4 °F 92% 29.75 in 3.0 mi SE 9.2 mph - N/A Snow Light Snow
7:47 PM 12.2 °F - 10.4 °F 92% 29.77 in 1.0 mi Calm Calm - N/A Snow Snow
8:47 PM 8.6 °F 0.1 °F 6.8 °F 92% 29.78 in 6.0 mi NW 4.6 mph - N/A Snow Light Snow
9:47 PM 8.6 °F -3.7 °F 5.0 °F 85% 29.80 in 10.0 mi NW 8.1 mph - N/A   Scattered Clouds
10:15 PM 6.8 °F -0.1 °F 3.2 °F 85% 29.80 in 10.0 mi NNE 3.5 mph - N/A   Clear
10:35 PM 5.0 °F - 3.2 °F 92% 29.81 in 10.0 mi Calm Calm - N/A   Clear
10:47 PM 5.0 °F - 1.4 °F 85% 29.82 in 10.0 mi Calm Calm - N/A   Scattered Clouds
10:55 PM 5.0 °F -2.1 °F 3.2 °F 92% 29.82 in 10.0 mi NW 3.5 mph - N/A   Clear
11:15 PM 3.2 °F - -0.4 °F 85% 29.82 in 7.0 mi Calm Calm - N/A   Clear
11:35 PM 3.2 °F - 1.4 °F 92% 29.82 in 7.0 mi Calm Calm - N/A   Clear
11:55 PM 1.4 °F -12.5 °F -2.2 °F 85% 29.83 in 10.0 mi NNW 8.1 mph - N/A   Clear